Wind_Speed
11 11 12 14 16 16 14 16 12 16 13 14 17 17 18 19 22 21 25 29 35 37 43 26 29 30 27 25 27 26 27 32 32 37 40 44 47 49 48 43 44 43 41 39
12 13 14 16 16 14 13 14 12 13 10 12 13 17 17 18 24 23 24 28 32 31 35 25 22 23 18 17 13 14 21 25 23 24 29 34 41 39 38 37 38 36 32 31
15 15 15 14 12 12 12 13 11 10 10 11 12 17 13 18 20 20 21 25 28 26 27 25 20 16 11 4 7 9 9 12 17 20 18 22 26 27 27 26 27 27 31 32
17 16 12 12 12 11 11 8 8 9 9 10 10 13 11 11 17 19 16 20 26 24 19 19 18 12 7 10 3 5 4 10 15 15 19 22 24 23 23 26 26 29 29 28
18 15 12 11 11 9 7 7 7 7 8 10 12 13 14 15 16 12 13 16 19 22 23 18 18 13 8 4 1 4 3 6 12 9 17 20 19 22 20 25 25 28 31 26
15 13 12 11 11 9 8 8 8 6 8 10 12 12 10 13 10 8 14 15 12 14 19 18 17 16 16 9 2 4 3 4 10 14 17 15 12 16 20 19 18 17 23 29
15 14 13 12 10 10 10 8 7 8 9 9 11 11 10 12 12 12 15 11 14 9 11 11 12 11 10 10 13 11 8 6 8 6 4 8 7 10 11 12 14 20 23 25
15 14 13 11 11 11 11 10 9 7 8 10 10 8 10 11 13 11 10 9 9 11 15 6 16 15 12 9 7 9 8 6 5 2 3 5 8 10 12 14 19 21 23 27
15 14 13 11 12 11 12 11 9 6 7 8 7 11 11 11 12 14 11 10 11 11 10 8 6 9 9 7 7 6 5 6 4 3 3 5 9 12 14 16 19 22 24 27
17 16 14 13 12 11 12 12 10 8 8 8 11 11 11 10 10 12 11 9 9 9 9 9 7 7 8 9 8 6 5 7 6 6 7 10 12 14 16 17 20 23 25 27
20 18 15 13 10 10 10 11 10 10 10 10 12 11 10 10 10 10 11 11 9 7 6 7 7 8 9 9 8 7 7 8 9 10 12 13 15 17 19 21 22 22 24 27
25 21 18 15 12 11 8 10 13 13 11 9 11 11 12 9 9 9 11 10 6 4 5 6 7 8 9 9 9 10 12 13 15 15 16 17 18 19 20 20 21 24 27 31
25 24 22 20 15 11 8 8 12 14 14 12 12 13 13 12 12 10 10 9 4 6 7 9 9 9 10 12 13 13 14 14 15 15 17 19 20 18 20 21 24 26 30 34
27 27 25 22 18 14 11 11 11 12 13 13 13 15 12 11 12 12 13 10 6 5 7 9 11 11 13 14 15 16 16 15 16 18 21 20 19 21 22 24 27 31 34 38
28 29 26 23 20 16 14 14 12 11 10 12 13 15 13 13 11 11 11 12 10 9 9 11 13 14 16 17 17 18 17 18 20 22 24 22 21 22 24 27 31 34 38 42
28 27 28 25 22 18 16 15 14 13 12 12 14 16 14 12 11 10 12 13 15 15 15 17 17 18 19 19 19 19 19 21 23 24 24 22 23 25 27 30 34 37 40 45
28 28 26 25 22 20 18 18 17 16 17 15 15 16 15 13 14 14 14 16 17 17 17 18 19 20 21 22 22 22 23 23 24 25 23 24 25 27 29 34 38 39 43 45
28 28 25 24 21 21 20 21 20 20 19 18 17 18 18 18 17 18 19 20 19 18 18 19 21 22 23 24 23 24 23 24 25 26 24 26 27 30 32 36 40 41 45 47
26 27 25 25 23 22 23 23 23 22 20 21 19 21 21 20 20 20 21 19 17 18 20 21 22 23 24 24 23 23 24 25 27 26 26 28 29 32 35 38 40 43 44 48
22 26 24 21 22 22 22 23 21 18 18 20 21 22 20 19 21 21 19 17 18 20 21 23 24 23 24 22 22 24 25 27 28 28 28 30 32 34 36 40 42 45 46 49
16 19 20 21 22 21 22 20 19 20 17 15 16 20 22 22 20 19 19 19 20 23 24 23 24 24 22 23 24 26 27 29 30 30 30 32 34 36 38 41 44 45 48 53
17 17 18 16 15 17 18 17 16 18 20 22 25 21 20 20 20 19 21 22 24 24 24 24 23 22 23 25 26 28 30 30 31 32 32 33 35 37 41 43 46 47 51 55
17 15 17 19 20 20 18 16 18 19 22 27 23 21 21 22 23 24 24 24 24 25 25 22 23 24 25 26 28 30 31 31 32 33 34 35 36 39 42 44 46 49 52 59
15 15 16 17 20 23 24 25 26 27 25 28 28 26 25 24 24 24 24 24 24 24 24 25 26 27 28 29 30 31 31 32 33 34 36 35 37 39 43 45 47 49 57 62
21 21 22 23 24 24 24 24 24 24 23 22 22 23 23 23 23 23 24 23 23 24 25 27 28 29 31 32 33 32 32 34 34 36 36 36 37 40 43 45 48 53 59 61
30 30 30 30 30 30 30 31 31 32 31 30 29 27 26 25 25 25 25 25 26 27 28 30 31 32 33 33 33 32 33 33 35 35 35 36 37 39 42 45 48 55 60 53
28 31 35 39 40 39 38 38 37 36 35 35 35 36 35 33 31 30 30 31 32 31 31 32 32 32 32 34 33 33 32 33 34 34 34 35 36 38 41 45 51 58 54 41
Wind_Direction
213 220 230 241 248 260 266 268 267 268 270 274 278 289 311 325 313 307 312 316 320 316 326 319 313 315 292 281 261 252 238 232 233 233 233 234 237 240 238 241 247 250 254 254
222 229 238 252 263 265 260 260 257 259 261 297 300 316 319 331 326 316 324 329 335 328 333 334 334 330 312 276 248 234 237 234 234 233 235 235 236 239 239 244 253 252 252 250
232 238 247 256 255 250 245 247 251 264 281 309 306 323 312 333 335 320 328 341 345 340 339 352 335 343 325 295 211 187 198 220 228 230 244 244 244 239 233 246 243 241 243 245
240 249 252 239 237 233 232 241 268 283 294 301 303 327 321 330 340 332 337 348 2 360 352 359 7 350 341 345 171 117 219 198 207 196 219 217 210 211 223 227 233 243 245 250
249 249 241 234 217 216 252 264 287 302 313 301 303 316 314 298 330 335 347 355 4 18 24 24 25 32 48 45 262 284 12 278 226 225 199 202 200 199 232 233 240 246 250 263
239 231 223 220 211 221 242 268 282 308 319 306 298 310 317 335 328 338 349 360 352 12 22 23 40 29 28 30 110 191 225 203 195 193 185 176 236 245 233 239 234 252 244 253
227 212 213 213 215 232 239 257 282 298 304 314 318 320 298 318 343 329 333 346 9 356 354 22 32 45 56 65 90 76 112 131 143 138 219 216 215 279 265 248 267 289 271 277
212 210 210 210 213 225 228 252 267 284 316 322 329 326 327 318 318 336 347 322 343 358 11 56 46 56 46 33 62 75 78 80 86 200 246 211 268 293 286 283 280 285 286 288
211 214 218 217 224 230 232 232 240 273 308 314 334 317 332 333 333 324 343 3 11 11 13 45 76 33 37 68 66 91 118 38 37 9 306 286 288 295 295 293 294 297 297 294
208 213 209 214 215 226 222 219 233 256 274 289 303 316 330 334 345 348 348 357 7 3 15 26 36 39 45 47 51 49 22 4 350 330 315 309 309 307 304 301 299 299 302 304
209 214 204 199 215 222 224 231 245 259 274 289 308 311 317 318 328 339 345 349 2 11 13 17 22 21 21 21 14 3 351 338 332 327 320 317 314 309 306 304 302 303 306 310
207 208 203 206 217 231 240 246 252 255 264 280 306 311 312 307 312 325 339 340 351 5 9 3 358 356 352 347 346 346 341 337 333 325 317 311 307 304 305 306 309 311 314 317
215 210 214 217 230 251 269 278 266 260 262 271 283 301 298 289 297 313 319 317 309 334 349 349 349 349 345 342 341 334 324 318 315 316 316 313 310 310 313 314 314 315 316 315
218 218 220 225 234 249 266 279 274 262 261 264 285 293 282 274 286 284 296 298 269 301 319 328 332 331 332 330 323 317 317 317 319 319 320 319 317 317 315 314 314 316 318 320
220 224 224 229 234 247 264 275 272 261 266 279 281 288 270 265 278 287 288 285 257 273 294 311 316 319 318 317 315 313 312 314 318 320 322 318 315 314 314 316 318 319 322 325
219 225 229 235 241 246 255 262 267 266 266 277 281 290 261 256 270 292 289 276 264 269 283 299 304 306 306 309 310 312 313 314 317 319 318 315 313 314 316 317 319 322 325 326
216 222 228 233 240 249 251 255 262 265 261 270 276 282 263 250 252 284 285 283 278 277 287 294 299 300 301 305 309 312 311 312 314 316 315 313 312 315 318 320 321 323 326 325
217 219 227 233 243 249 253 258 260 265 266 265 268 267 259 257 264 277 282 282 279 277 281 290 295 298 301 306 308 309 310 314 316 316 312 313 314 317 318 320 321 323 324 324
219 223 231 239 247 253 254 259 264 269 266 258 263 268 265 267 271 277 279 272 270 272 282 289 294 297 300 305 306 308 313 314 314 312 310 312 313 315 316 319 320 322 322 324
227 233 240 245 251 254 255 261 268 268 254 247 257 261 261 266 270 269 264 263 270 278 285 290 292 297 301 304 306 310 312 313 313 311 310 311 311 314 316 318 320 321 320 324
240 245 247 254 254 257 256 254 265 269 256 262 266 274 258 254 254 256 266 272 276 282 286 289 294 298 301 303 305 309 311 312 313 311 309 311 312 313 314 317 319 319 320 325
238 247 242 237 244 257 260 261 263 265 263 264 273 271 259 257 260 264 269 275 280 282 284 290 294 296 301 302 304 306 310 312 313 313 309 309 312 314 314 316 318 319 324 327
220 219 218 221 227 223 203 219 230 240 263 264 255 260 262 265 267 269 273 275 278 281 286 288 294 297 299 301 302 304 309 311 311 312 312 310 311 313 314 316 318 321 325 326
270 258 248 240 235 236 241 243 244 239 239 251 253 256 259 262 268 270 272 277 281 284 287 292 294 297 299 299 300 305 309 311 312 312 312 309 310 312 314 316 319 324 326 327
273 269 267 267 266 263 259 254 252 251 255 260 261 260 259 261 264 271 275 277 280 283 286 288 291 294 296 298 301 306 309 312 312 311 310 308 310 312 315 319 324 326 328 330
270 270 271 271 268 265 263 265 267 269 269 268 267 266 268 270 271 273 277 280 282 285 286 288 291 293 294 297 302 308 312 312 312 311 309 308 310 313 317 322 325 328 331 331
275 272 270 268 265 265 264 265 265 266 266 268 269 270 271 269 268 268 272 276 279 281 284 285 289 292 293 295 303 310 315 314 312 310 309 310 311 314 319 323 327 332 333 330
Height
5643 5646 5647 5649 5650 5652 5653 5652 5654 5652 5653 5652 5650 5647 5644 5641 5638 5634 5630 5625 5618 5608 5597 5588 5581 5572 5564 5561 5562 5565 5568 5575 5580 5586 5593 5600 5606 5614 5620 5626 5631 5633 5636 5639
5642 5643 5645 5646 5647 5648 5649 5648 5649 5649 5650 5647 5644 5642 5639 5636 5632 5629 5624 5619 5610 5601 5592 5583 5578 5571 5562 5558 5559 5563 5566 5572 5577 5584 5589 5594 5600 5606 5616 5621 5626 5628 5630 5632
5639 5640 5642 5644 5644 5645 5646 5646 5646 5645 5644 5642 5640 5638 5635 5632 5629 5626 5621 5614 5606 5598 5591 5582 5577 5571 5565 5561 5560 5562 5566 5570 5576 5581 5586 5590 5596 5604 5611 5614 5618 5620 5622 5623
5635 5637 5639 5640 5641 5642 5642 5643 5642 5641 5640 5639 5637 5635 5633 5630 5627 5623 5618 5611 5605 5598 5591 5585 5579 5573 5570 5567 5563 5564 5567 5570 5574 5579 5582 5588 5594 5600 5605 5607 5610 5613 5615 5617
5632 5634 5636 5636 5638 5639 5638 5639 5638 5637 5636 5635 5634 5632 5630 5627 5625 5621 5617 5611 5606 5601 5594 5587 5582 5577 5574 5572 5571 5571 5573 5575 5577 5580 5583 5588 5592 5597 5599 5604 5607 5608 5607 5612
5629 5631 5632 5634 5634 5635 5636 5636 5635 5634 5634 5632 5631 5630 5628 5625 5622 5619 5616 5612 5607 5603 5598 5593 5587 5584 5580 5577 5576 5576 5577 5578 5580 5583 5586 5589 5594 5598 5601 5601 5602 5603 5606 5605
5625 5628 5629 5631 5632 5633 5634 5637 5632 5632 5631 5630 5629 5628 5626 5623 5620 5616 5614 5612 5607 5603 5600 5596 5593 5589 5586 5584 5583 5582 5583 5584 5586 5588 5592 5593 5596 5596 5598 5599 5600 5600 5601 5599
5623 5624 5627 5628 5630 5631 5631 5630 5630 5631 5629 5629 5628 5626 5624 5621 5618 5616 5613 5611 5608 5604 5601 5598 5596 5595 5593 5590 5589 5588 5588 5589 5590 5591 5592 5594 5595 5596 5596 5596 5595 5594 5594 5593
5620 5622 5624 5625 5627 5627 5628 5628 5629 5629 5628 5627 5626 5625 5621 5619 5617 5614 5613 5610 5607 5604 5602 5599 5598 5597 5595 5593 5592 5592 5592 5592 5592 5593 5593 5593 5593 5593 5592 5592 5591 5589 5588 5587
5617 5619 5620 5622 5624 5625 5625 5626 5626 5626 5625 5624 5623 5622 5620 5617 5616 5614 5612 5610 5608 5606 5604 5602 5600 5599 5598 5596 5595 5595 5594 5594 5594 5594 5593 5592 5590 5590 5589 5588 5587 5585 5582 5579
5613 5615 5617 5620 5622 5623 5623 5623 5623 5623 5623 5622 5621 5619 5618 5616 5614 5613 5611 5609 5608 5607 5605 5603 5602 5600 5599 5598 5598 5597 5596 5595 5594 5593 5591 5590 5588 5587 5585 5583 5581 5578 5575 5572
5608 5612 5615 5617 5618 5619 5619 5619 5619 5620 5619 5619 5618 5616 5615 5614 5612 5611 5610 5609 5607 5606 5605 5604 5603 5601 5600 5599 5598 5596 5595 5593 5591 5589 5588 5587 5585 5583 5580 5577 5574 5571 5567 5564
5606 5608 5610 5612 5614 5615 5616 5616 5616 5616 5616 5615 5614 5614 5613 5611 5609 5609 5608 5607 5606 5605 5604 5603 5602 5600 5599 5597 5596 5595 5593 5592 5590 5588 5585 5583 5580 5577 5574 5571 5568 5565 5562 5557
5600 5603 5606 5608 5610 5611 5612 5612 5611 5611 5611 5611 5611 5610 5609 5608 5606 5606 5605 5605 5605 5604 5603 5602 5601 5599 5598 5596 5595 5593 5591 5588 5586 5584 5581 5577 5574 5571 5568 5566 5562 5558 5554 5548
5595 5598 5601 5603 5605 5607 5607 5607 5607 5607 5607 5607 5606 5606 5605 5604 5604 5603 5603 5602 5602 5602 5601 5600 5599 5597 5596 5594 5592 5589 5587 5584 5582 5578 5575 5572 5569 5566 5563 5559 5554 5549 5544 5538
5589 5593 5596 5598 5600 5601 5602 5603 5602 5602 5603 5602 5602 5601 5601 5600 5600 5600 5599 5599 5599 5599 5598 5597 5596 5594 5592 5590 5588 5585 5582 5579 5576 5573 5570 5567 5563 5560 5556 5551 5546 5541 5535 5529
5583 5586 5590 5592 5594 5596 5597 5597 5597 5598 5598 5598 5598 5598 5597 5596 5596 5597 5597 5596 5595 5595 5594 5593 5592 5590 5588 5585 5582 5579 5576 5574 5571 5567 5564 5561 5557 5553 5548 5544 5539 5533 5527 5520
5576 5580 5584 5586 5588 5590 5590 5591 5592 5592 5593 5593 5593 5593 5592 5592 5592 5592 5591 5591 5591 5590 5589 5588 5586 5584 5582 5579 5576 5574 5571 5568 5565 5561 5558 5554 5550 5545 5541 5536 5531 5525 5519 5512
5572 5575 5578 5580 5582 5583 5584 5585 5585 5585 5586 5587 5587 5587 5586 5587 5587 5586 5586 5585 5585 5585 5584 5582 5580 5578 5576 5573 5571 5568 5565 5562 5559 5555 5551 5547 5543 5539 5534 5529 5524 5518 5511 5503
5568 5571 5573 5574 5576 5576 5577 5577 5578 5578 5578 5580 5581 5581 5581 5581 5581 5580 5580 5580 5580 5579 5578 5576 5574 5572 5570 5567 5565 5562 5559 5556 5552 5548 5544 5540 5536 5532 5527 5522 5516 5509 5502 5494
5564 5566 5568 5568 5569 5570 5570 5571 5571 5572 5573 5573 5574 5575 5575 5575 5574 5574 5574 5574 5574 5573 5572 5570 5568 5566 5563 5561 5558 5556 5552 5549 5545 5541 5537 5534 5529 5525 5519 5513 5507 5500 5493 5485
5559 5560 5561 5562 5563 5563 5564 5565 5565 5566 5567 5568 5569 5569 5568 5568 5568 5568 5568 5568 5567 5566 5565 5563 5561 5559 5557 5554 5552 5549 5546 5542 5538 5534 5530 5526 5521 5517 5511 5505 5498 5491 5483 5475
5555 5556 5557 5558 5558 5558 5558 5560 5562 5563 5563 5563 5563 5563 5563 5562 5562 5562 5561 5561 5560 5559 5558 5556 5554 5553 5550 5547 5545 5542 5539 5535 5531 5527 5522 5518 5513 5508 5502 5495 5489 5482 5474 5464
5551 5552 5552 5552 5553 5554 5555 5555 5556 5557 5556 5555 5556 5556 5556 5555 5555 5554 5554 5553 5553 5552 5550 5549 5547 5545 5543 5540 5537 5535 5531 5528 5523 5519 5514 5509 5505 5500 5493 5487 5480 5473 5464 5453
5545 5545 5546 5546 5547 5547 5548 5548 5548 5549 5549 5549 5549 5549 5548 5548 5548 5547 5546 5546 5545 5544 5543 5542 5540 5537 5535 5532 5529 5527 5523 5519 5515 5510 5506 5501 5497 5491 5485 5478 5472 5464 5454 5442
5537 5537 5537 5538 5538 5539 5539 5539 5539 5539 5539 5539 5540 5540 5540 5540 5540 5539 5539 5538 5537 5536 5535 5533 5532 5529 5527 5523 5521 5519 5515 5511 5507 5502 5497 5493 5488 5483 5477 5470 5463 5454 5444 5432
5526 5526 5526 5526 5527 5528 5528 5529 5529 5529 5529 5529 5529 5529 5530 5530 5530 5529 5529 5528 5528 5527 5526 5525 5524 5522 5519 5516 5514 5511 5507 5503 5498 5494 5490 5486 5481 5475 5469 5462 5454 5445 5434 5425